Simultaneous Nadir Overpasses (SNOs) Predictions

Prediction of SNOs between AQUA and METOP-B Satellite Orbit:

Table of predicted SNOs for the next 14.0 days since TLE Epoch: 7/8/2016
Index Date (AQUA) Time (AQUA) Lat,Lon (AQUA) SZA (AQUA ) Date (METOP-B) Time (METOP-B) Lat,Lon (METOP-B) SZA (METOP-B ) Distance(km) Time Diff (sec)
1 07/10/2016 17:52:43 73.71, -93.71 51.65 07/10/2016 17:51:49 73.72, -93.82 51.68 3.64 54
2 07/10/2016 18:42:10 -73.79, 73.76 128.26 07/10/2016 18:42:29 -73.80, 73.70 128.25 2.17 19
3 07/10/2016 19:31:50 74.43,-120.08 52.45 07/10/2016 19:32:56 74.44,-117.36 52.34 81.10 66
4 07/13/2016 13:26:58 73.76, -27.38 52.11 07/13/2016 13:26:14 73.73, -27.39 52.09 3.33 44
5 07/13/2016 14:16:25 -73.83, 140.10 127.81 07/13/2016 14:16:54 -73.81, 140.14 127.83 2.30 29
6 07/16/2016 09:01:11 73.76, 39.05 52.56 07/16/2016 09:00:38 73.74, 39.03 52.54 3.17 33
7 07/16/2016 09:50:38 -73.83,-153.46 127.36 07/16/2016 09:51:18 -73.83,-153.43 127.37 0.98 40
8 07/19/2016 03:45:44 -73.06, -60.67 127.71 07/19/2016 03:44:38 -73.01, -63.54 127.62 93.37 66
9 07/19/2016 04:35:25 73.78, 105.46 53.07 07/19/2016 04:35:02 73.79, 105.57 53.09 3.59 23
10 07/19/2016 05:24:52 -73.84, -87.03 126.86 07/19/2016 05:25:43 -73.84, -87.00 126.87 0.97 51
11 07/21/2016 23:20:06 -73.49, 4.88 126.71 07/21/2016 23:18:55 -73.42, 3.76 126.72 36.39 71
12 07/22/2016 00:09:38 73.74, 171.97 53.58 07/22/2016 00:09:28 73.74, 171.86 53.59 3.54 10
13 07/22/2016 00:59:06 -73.85, -20.62 126.30 07/22/2016 01:00:08 -73.84, -20.57 126.32 1.46 62




NCC Satellite Simultaneous Nadir Overpasses (SNOs) Prediction Service
